Starlink 34352

operational
NORAD ID: 64257 Int'l Des: 2025-120 Owner: SPXS Country: US Constellation: starlink
LEOCIRCULAR

About Starlink 34352

Description loading...

Live Position

Loading 3D Globe...

Upcoming Passes

Altitude History

Altitude vs Time

uPlot chart will show altitude changes over time

Two-Line Element Set

1 64257U 25120B 25352.68687665 .00014071 00000-0 48627-3 0 9996
2 64257 53.1572 132.9873 0000883 61.4065 298.7025 15.30201531 31461
Epoch: Dec 18, 2025 • Age: 23 hours

Current Status

Altitude 476.2 km
Velocity 7.63 km/s
Sub-Earth Point 0.48°N, 8.4°W
Launch Date Jun 4, 2025
Age 0.5 years
Type internet

Technical Details

Classification Payload
Mass 575.00 kg
Dry Mass 530.00 kg
Total Mass 575.00 kg
Length 0.30 m
Diameter 4.10 m
Span 29.00 m
Shape Box + pan
Manufacturer SPXS
Bus Type Starlink V2MO
Phase Status In Orbit
Owner/State SPXS/US

Large Constellations

Loading constellations...